DO7AX-13 Weather Reports


time (UTC)temp
C
wind
direction
speed
KPH
gust
KPH
rain 1hr
cm
rain 24hr
cm
rain mn
cm
humidity
%
barometer
mb
20260507093801 14 14 9.7 17.7 0.00 0.00 0.00 60 1013.3
20260507093301 14 51 9.7 17.7 0.00 0.00 0.00 61 1013.3
20260507092800 13 24 9.7 17.7 0.00 0.00 0.00 58 1013.2
20260507092301 14 7 6.4 17.7 0.00 0.00 0.00 60 1013.3
20260507091800 14 27 9.7 17.7 0.00 0.00 0.00 55 1013.2
20260507091301 14 45 9.7 17.7 0.00 0.00 0.00 59 1013.2
20260507090801 14 17 11.3 17.7 0.00 0.00 0.00 58 1013.2
20260507085301 13 343 8.0 14.5 0.00 0.00 0.00 60 1013.1
20260507084300 13 54 3.2 17.7 0.00 0.00 0.00 60 1013.2
20260507083802 13 37 4.8 17.7 0.00 0.00 0.00 66 1013.1
20260507083301 12 4 8.0 19.3 0.00 0.00 0.00 62 1013.1
20260507082801 12 47 8.0 19.3 0.00 0.00 0.00 62 1013.1
20260507081803 12 69 9.7 17.7 0.00 0.00 0.00 65 1013.0
20260507081301 12 20 8.0 16.1 0.00 0.00 0.00 63 1013.0
20260507080800 12 69 8.0 14.5 0.00 0.00 0.00 66 1012.9
20260507080300 12 44 8.0 17.7 0.00 0.00 0.00 68 1012.9
20260507075801 11 76 9.7 19.3 0.00 0.00 0.00 67 1012.9
20260507074802 11 133 9.7 17.7 0.00 0.00 0.00 69 1012.9
20260507074301 11 37 6.4 19.3 0.00 0.00 0.00 69 1012.9
20260507073301 11 97 9.7 17.7 0.00 0.00 0.00 71 1012.7
20260507072801 10 7 6.4 17.7 0.00 0.00 0.00 72 1012.6
20260507072323 10 8 4.8 17.7 0.00 0.00 0.00 70 1012.8
20260507071800 11 51 6.4 17.7 0.00 0.00 0.00 71 1012.7
20260507071302 10 75 8.0 17.7 0.00 0.00 0.00 72 1012.8
20260507070802 10 99 9.7 17.7 0.00 0.00 0.00 73 1012.6
20260507070301 10 100 6.4 16.1 0.00 0.00 0.00 72 1012.7
20260507065801 10 42 6.4 16.1 0.00 0.00 0.00 74 1012.6
20260507064801 10 45 9.7 17.7 0.00 0.00 0.00 74 1012.6
20260507064301 10 61 4.8 16.1 0.00 0.00 0.00 74 1012.5
20260507063800 9 38 8.0 16.1 0.00 0.00 0.00 76 1012.4
20260507063301 9 31 6.4 20.9 0.00 0.00 0.00 76 1012.4
20260507062800 9 28 12.9 20.9 0.00 0.00 0.00 75 1012.3
20260507062316 8 55 8.0 14.5 0.00 0.00 0.00 79 1012.1
20260507061804 8 82 6.4 16.1 0.00 0.00 0.00 79 1012.0
20260507061302 8 66 9.7 16.1 0.00 0.00 0.00 79 1012.1
20260507060802 8 89 6.4 14.5 0.00 0.00 0.00 79 1012.1
20260507060302 8 79 3.2 16.1 0.00 0.00 0.00 79 1012.0
20260507055800 8 35 9.7 16.1 0.00 0.00 0.00 79 1011.9
20260507054801 8 69 6.4 17.7 0.00 0.00 0.00 80 1011.9
20260507054301 7 34 8.0 16.1 0.00 0.00 0.00 80 1011.8
20260507053300 7 10 8.0 20.9 0.00 0.00 0.00 80 1011.7
20260507052801 7 41 9.7 17.7 0.00 0.00 0.00 80 1011.7
20260507052301 7 18 6.4 16.1 0.00 0.00 0.00 81 1011.6
20260507051801 7 71 6.4 16.1 0.00 0.00 0.00 81 1011.5
20260507051301 7 117 4.8 17.7 0.00 0.00 0.00 81 1011.6
20260507050800 7 61 9.7 20.9 0.00 0.00 0.00 81 1011.5
20260507045801 7 79 4.8 19.3 0.00 0.00 0.00 82 1011.5
20260507045301 7 37 6.4 19.3 0.00 0.00 0.00 81 1011.4
20260507044800 7 3 8.0 17.7 0.00 0.00 0.00 82 1011.3
20260507044301 7 51 6.4 14.5 0.00 0.00 0.00 82 1011.2
20260507043801 7 69 6.4 19.3 0.00 0.00 0.00 82 1011.1
20260507042802 7 73 8.0 14.5 0.00 0.00 0.00 83 1011.1
20260507042301 7 89 6.4 16.1 0.00 0.00 0.00 83 1011.0
20260507040302 7 27 3.2 14.5 0.00 0.00 0.00 83 1010.9
20260507035801 7 78 6.4 16.1 0.00 0.00 0.00 83 1010.8
20260507034804 7 63 8.0 14.5 0.00 0.00 0.00 84 1010.8
20260507034303 7 51 6.4 11.3 0.00 0.00 0.00 84 1010.8
20260507033801 7 51 6.4 11.3 0.00 0.00 0.00 83 1010.8
20260507033301 7 59 8.0 14.5 0.00 0.00 0.00 83 1010.8
20260507032800 7 30 6.4 14.5 0.00 0.00 0.00 83 1010.8
20260507031301 7 69 4.8 14.5 0.00 0.00 0.00 84 1010.7
20260507030800 7 85 6.4 19.3 0.00 0.00 0.00 84 1010.6
20260507030301 7 66 8.0 19.3 0.00 0.00 0.00 84 1010.6
20260507024802 7 55 6.4 17.7 0.00 0.00 0.00 84 1010.5
20260507024301 7 10 8.0 16.1 0.00 0.00 0.00 83 1010.5
20260507023800 7 96 6.4 16.1 0.00 0.00 0.00 84 1010.4
20260507023317 7 54 4.8 19.3 0.00 0.00 0.00 83 1010.2
20260507022842 7 116 4.8 19.3 0.00 0.00 0.00 83 1010.1
20260507022710 7 116 4.8 17.7 0.00 0.00 0.00 83 1010.2
20260507022152 7 68 9.7 20.9 0.00 0.00 0.00 83 1010.2
20260507022038 7 65 6.4 20.9 0.00 0.00 0.00 83 1010.1
20260507021921 7 85 8.0 16.1 0.00 0.00 0.00 83 1010.1
20260507021723 7 73 8.0 17.7 0.00 0.00 0.00 83 1010.1
20260507021550 7 0 4.8 19.3 0.00 0.00 0.00 83 1010.1
20260507021410 7 100 9.7 19.3 0.00 0.00 0.00 83 1010.1
20260507021254 7 11 6.4 16.1 0.00 0.00 0.00 83 1010.0
20260507011302 7 61 6.4 20.9 0.00 0.00 0.00 83 1009.9
20260507010800 7 96 8.0 16.1 0.00 0.00 0.00 83 1009.7
20260507010300 7 18 6.4 17.7 0.00 0.00 0.00 83 1009.7
20260507005800 7 41 8.0 17.7 0.00 0.00 0.00 82 1009.8
20260507005305 7 45 6.4 16.1 0.00 0.00 0.00 82 1009.7
20260507004802 7 66 8.0 14.5 0.00 0.00 0.00 82 1009.7
20260507004303 7 41 4.8 14.5 0.00 0.00 0.00 82 1009.7
20260507003803 7 90 6.4 14.5 0.00 0.00 0.00 81 1009.8
20260507002801 8 71 6.4 16.1 0.00 0.00 0.00 81 1009.9
20260507002306 8 82 6.4 16.1 0.00 0.00 0.00 81 1009.7
20260507001802 8 69 9.7 20.9 0.00 0.00 0.00 81 1009.8
20260507001303 8 45 8.0 20.9 0.00 0.00 0.00 81 1009.7
20260507000303 8 52 4.8 16.1 0.00 0.00 0.00 81 1009.8
20260506235802 8 96 8.0 19.3 0.00 0.00 0.00 81 1009.7
20260506235306 8 97 9.7 19.3 0.00 0.00 0.00 81 1009.6
20260506233302 8 109 6.4 11.3 0.00 0.00 0.00 81 1009.7
20260506232804 8 102 3.2 11.3 0.00 0.00 0.00 81 1009.7
20260506232306 8 127 3.2 16.1 0.00 0.00 0.00 81 1009.6
20260506231300 8 89 9.7 17.7 0.00 0.00 0.00 81 1009.5
20260506230801 8 16 8.0 16.1 0.00 0.00 0.00 81 1009.6
20260506230314 8 80 8.0 14.5 0.00 0.00 0.00 81 1009.5
20260506225802 8 69 6.4 19.3 0.00 0.00 0.00 81 1009.4
20260506225301 8 80 6.4 19.3 0.00 0.00 0.00 81 1009.5
20260506224803 8 75 9.7 17.7 0.00 0.00 0.00 81 1009.5
20260506224300 8 116 8.0 16.1 0.00 0.00 0.00 81 1009.4
20260506222759 8 71 3.2 19.3 0.00 0.00 0.00 81 1009.3
20260506222300 8 116 6.4 19.3 0.00 0.00 0.00 81 1009.2
20260506221759 8 110 4.8 16.1 0.00 0.00 0.00 81 1009.2
20260506221300 8 59 8.0 17.7 0.00 0.00 0.00 81 1009.1
20260506220801 8 73 9.7 17.7 0.00 0.00 0.00 81 1009.1
20260506220300 8 159 1.6 11.3 0.00 0.00 0.00 81 1009.0
20260506215759 8 79 6.4 19.3 0.00 0.00 0.00 81 1009.1
20260506215259 8 82 6.4 19.3 0.00 0.00 0.00 81 1009.0
20260506214804 8 14 4.8 16.1 0.00 0.00 0.00 81 1009.1
20260506213801 8 96 4.8 19.3 0.00 0.00 0.00 81 1009.0
20260506213303 8 51 9.7 20.9 0.00 0.00 0.00 81 1008.9
20260506212259 8 47 9.7 24.1 0.00 0.00 0.00 81 1008.9
20260506211758 8 75 11.3 24.1 0.00 0.00 0.00 81 1008.9
20260506210757 8 44 11.3 19.3 0.00 0.00 0.00 81 1008.9
20260506210258 8 75 8.0 20.9 0.00 0.00 0.00 81 1008.9
20260506205819 8 47 9.7 24.1 0.00 0.00 0.00 80 1008.9
20260506205255 8 62 11.3 24.1 0.00 0.00 0.00 80 1008.9
20260506204255 8 82 6.4 17.7 0.00 0.00 0.00 82 1008.7
20260506203754 8 113 8.0 14.5 0.00 0.00 0.00 82 1008.6
20260506202812 8 106 3.2 9.7 0.00 0.00 0.00 81 1008.6
20260506202320 8 100 1.6 9.7 0.00 0.00 0.00 81 1008.6
20260506201257 9 120 3.2 9.7 0.00 0.00 0.00 81 1008.6
20260506200756 9 116 4.8 9.7 0.00 0.00 0.00 81 1008.5
20260506200254 9 120 3.2 14.5 0.00 0.00 0.00 81 1008.5
20260506195753 9 42 3.2 22.5 0.00 0.00 0.00 81 1008.4
20260506195254 9 75 11.3 22.5 0.00 0.00 0.00 80 1008.4
20260506194757 9 75 6.4 29.0 0.00 0.00 0.00 80 1008.3
20260506194255 9 99 9.7 29.0 0.00 0.00 0.00 80 1008.3
20260506193756 9 65 12.9 27.4 0.00 0.00 0.00 80 1008.3
20260506192755 9 51 11.3 24.1 0.00 0.00 0.00 81 1008.1
20260506192255 9 111 12.9 24.1 0.00 0.00 0.00 81 1008.1
20260506191756 9 42 6.4 22.5 0.00 0.00 0.00 81 1008.0
20260506191309 9 32 8.0 20.9 0.00 0.00 0.00 81 1007.9
20260506190806 10 82 8.0 24.1 0.00 0.00 0.00 81 1007.9
20260506190254 10 58 9.7 24.1 0.00 0.00 0.00 80 1007.9
20260506185754 10 158 6.4 19.3 0.00 0.00 0.00 80 1007.9
20260506185255 10 78 6.4 24.1 0.00 0.00 0.00 79 1007.8
20260506184753 10 90 12.9 24.1 0.00 0.00 0.00 79 1007.8
20260506184255 10 79 6.4 20.9 0.00 0.00 0.00 79 1007.8
20260506183753 10 92 9.7 20.9 0.00 0.00 0.00 79 1007.7
20260506183252 10 87 9.7 17.7 0.00 0.00 0.00 79 1007.6
20260506182753 11 85 6.4 20.9 0.00 0.00 0.00 78 1007.6
20260506182253 11 99 9.7 20.9 0.00 0.00 0.00 77 1007.4
20260506181754 11 82 9.7 17.7 0.00 0.00 0.00 77 1007.3
20260506181254 11 44 8.0 17.7 0.00 0.00 0.00 77 1007.2
20260506180253 11 62 6.4 19.3 0.00 0.00 0.00 75 1007.1
20260506175752 11 75 8.0 19.3 0.00 0.00 0.00 75 1007.0
20260506175254 11 71 9.7 19.3 0.00 0.00 0.00 77 1007.0
20260506174752 11 34 8.0 19.3 0.00 0.00 0.00 77 1007.0
20260506174252 11 35 6.4 16.1 0.00 0.00 0.00 77 1007.0
20260506173750 11 0 6.4 14.5 0.00 0.00 0.00 78 1007.0
20260506173252 11 25 6.4 20.9 0.00 0.00 0.00 78 1006.9
20260506172751 11 16 9.7 20.9 0.00 0.00 0.00 78 1006.9
20260506172251 11 20 9.7 20.9 0.00 0.00 0.00 78 1006.9
20260506171251 11 11 9.7 19.3 0.00 0.00 0.00 77 1006.8
20260506170750 11 37 9.7 22.5 0.00 0.00 0.00 78 1006.6
20260506170251 11 0 9.7 22.5 0.00 0.00 0.00 77 1006.6
20260506165751 11 25 11.3 22.5 0.00 0.00 0.00 78 1006.6
20260506165249 11 69 14.5 22.5 0.00 0.00 0.00 78 1006.6
20260506164252 11 44 12.9 24.1 0.00 0.00 0.00 78 1006.5
20260506163250 12 32 11.3 19.3 0.00 0.00 0.00 78 1006.6
20260506162750 12 28 9.7 19.3 0.00 0.00 0.00 77 1006.6
20260506161750 12 18 6.4 20.9 0.00 0.00 0.00 77 1006.6
20260506161246 12 17 9.7 19.3 0.00 0.00 0.00 77 1006.6
20260506160746 12 7 11.3 20.9 0.00 0.00 0.00 76 1006.5
20260506160248 12 8 9.7 24.1 0.00 0.00 0.00 77 1006.6
20260506155248 12 35 12.9 20.9 0.00 0.00 0.00 77 1006.4
20260506154748 12 11 8.0 19.3 0.00 0.00 0.00 77 1006.5
20260506153747 12 45 9.7 19.3 0.00 0.00 0.00 77 1006.4
20260506153248 12 30 4.8 17.7 0.00 0.00 0.00 77 1006.5
20260506152748 12 348 8.0 20.9 0.00 0.00 0.00 77 1006.4
20260506151747 12 18 11.3 19.3 0.00 0.00 0.00 76 1006.6
20260506151247 12 20 12.9 25.7 0.00 0.00 0.00 76 1006.5
20260506150248 12 0 9.7 17.7 0.00 0.00 0.00 76 1006.5
20260506145745 12 42 9.7 17.7 0.00 0.00 0.00 76 1006.6
20260506145245 12 34 8.0 17.7 0.00 0.00 0.00 76 1006.6
20260506144744 12 0 9.7 17.7 0.00 0.00 0.00 76 1006.5
20260506144258 13 14 11.3 17.7 0.00 0.00 0.00 75 1006.6
20260506143246 12 42 6.4 14.5 0.00 0.00 0.00 76 1006.5
20260506142745 12 32 6.4 16.1 0.00 0.00 0.00 74 1006.5
20260506142246 12 80 8.0 16.1 0.00 0.00 0.00 74 1006.6
20260506141747 12 41 9.7 20.9 0.00 0.00 0.00 75 1006.5
20260506141243 12 21 6.4 20.9 0.00 0.00 0.00 74 1006.5
20260506140245 12 20 9.7 17.7 0.00 0.00 0.00 73 1006.5
20260506135746 13 63 11.3 17.7 0.00 0.00 0.00 73 1006.6
20260506135245 13 13 6.4 17.7 0.00 0.00 0.00 73 1006.5
20260506134745 13 49 12.9 19.3 0.00 0.00 0.00 72 1006.5
20260506134248 13 45 9.7 19.3 0.00 0.00 0.00 73 1006.5
20260506133745 13 37 6.4 14.5 0.00 0.00 0.00 73 1006.5
20260506133244 13 23 6.4 16.1 0.00 0.00 0.00 72 1006.6
20260506132745 13 63 11.3 16.1 0.00 0.00 0.00 71 1006.5
20260506132247 13 16 8.0 19.3 0.00 0.00 0.00 73 1006.5
20260506131743 13 3 8.0 19.3 0.00 0.00 0.00 73 1006.4
20260506130244 13 18 6.4 19.3 0.00 0.00 0.00 74 1006.4
20260506125743 13 0 9.7 19.3 0.00 0.00 0.00 74 1006.3
20260506125243 13 348 9.7 16.1 0.00 0.00 0.00 75 1006.3
20260506124745 13 0 8.0 17.7 0.00 0.00 0.00 74 1006.4
20260506124244 13 0 9.7 19.3 0.00 0.00 0.00 75 1006.4
20260506123743 13 10 9.7 19.3 0.00 0.00 0.00 75 1006.4
20260506123242 13 338 9.7 19.3 0.00 0.00 0.00 74 1006.3
20260506122742 13 37 6.4 16.1 0.00 0.00 0.00 74 1006.3
20260506122256 13 0 8.0 16.1 0.00 0.00 0.00 72 1006.3
20260506121245 13 21 8.0 14.5 0.00 0.00 0.00 72 1006.2
20260506120744 13 23 8.0 14.5 0.00 0.00 0.00 71 1006.2
20260506120254 13 0 8.0 17.7 0.00 0.00 0.00 72 1006.2
20260506115743 13 340 9.7 17.7 0.00 0.00 0.00 71 1006.0
20260506115241 13 23 6.4 17.7 0.00 0.00 0.00 70 1006.0
20260506114741 13 0 4.8 16.1 0.00 0.00 0.00 71 1006.0
20260506113742 13 21 8.0 16.1 0.00 0.00 0.00 70 1006.1
20260506112807 13 42 8.0 17.7 0.00 0.00 0.00 69 1006.0
20260506112241 13 32 8.0 17.7 0.00 0.00 0.00 67 1006.1
20260506111740 13 31 9.7 16.1 0.00 0.00 0.00 66 1006.1
20260506111241 13 32 9.7 16.1 0.00 0.00 0.00 66 1006.1
20260506110740 13 24 9.7 20.9 0.00 0.00 0.00 66 1006.2
20260506105740 13 20 9.7 17.7 0.00 0.00 0.00 66 1006.1
20260506105240 13 25 9.7 17.7 0.00 0.00 0.00 66 1006.1
20260506104740 13 25 8.0 17.7 0.00 0.00 0.00 67 1006.1
20260506103238 12 48 9.7 19.3 0.00 0.00 0.00 65 1006.1
20260506102737 13 30 9.7 17.7 0.00 0.00 0.00 65 1006.1
20260506102248 13 3 8.0 17.7 0.00 0.00 0.00 67 1006.1
20260506101737 12 24 8.0 19.3 0.00 0.00 0.00 66 1006.1
20260506101237 12 0 8.0 19.3 0.00 0.00 0.00 67 1006.1
20260506100737 12 25 9.7 19.3 0.00 0.00 0.00 67 1006.1
20260506095737 12 23 12.9 20.9 0.00 0.00 0.00 67 1006.1
20260506095244 12 0 8.0 16.1 0.00 0.00 0.00 67 1006.1
20260506094736 12 14 8.0 17.7 0.00 0.00 0.00 66 1006.1